| time (UTC) | temp C | wind direction | speed KPH | gust KPH | rain 1hr cm | rain 24hr cm | rain mn cm | humidity % | barometer mb |
| 20260906190057 | 34 | 0 | 0.0 | 17.7 | 0.00 | 0.00 | 0.00 | 55 | 1012.8 |
| 20260906190046 | 34 | 327 | 0.0 | 11.3 | 0.00 | 0.00 | 0.00 | 55 | 1014.6 |
| 20260906184552 | 34 | 218 | 3.2 | 19.3 | 0.00 | 0.00 | 0.00 | 51 | 1013.1 |
| 20260906184545 | 34 | 218 | 1.6 | 19.3 | 0.00 | 0.00 | 0.00 | 51 | 1014.9 |
| 20260906183110 | 33 | 0 | 4.8 | 12.9 | 0.00 | 0.00 | 0.00 | 56 | 1013.0 |
| 20260906183106 | 33 | 63 | 3.2 | 12.9 | 0.00 | 0.00 | 0.00 | 56 | 1014.9 |
| 20260906181557 | 33 | 88 | 8.0 | 17.7 | 0.00 | 0.00 | 0.00 | 54 | 1013.3 |
| 20260906181541 | 33 | 76 | 4.8 | 17.7 | 0.00 | 0.00 | 0.00 | 55 | 1015.0 |
| 20260906180116 | 33 | 127 | 0.0 | 12.9 | 0.00 | 0.00 | 0.00 | 57 | 1013.6 |
| 20260906180055 | 33 | 134 | 3.2 | 12.9 | 0.00 | 0.00 | 0.00 | 58 | 1015.3 |
| 20260906174557 | 33 | 0 | 0.0 | 14.5 | 0.00 | 0.00 | 0.00 | 59 | 1014.0 |
| 20260906174538 | 33 | 101 | 0.0 | 11.3 | 0.00 | 0.00 | 0.00 | 59 | 1015.4 |
| 20260906173058 | 33 | 187 | 1.6 | 14.5 | 0.00 | 0.00 | 0.00 | 60 | 1014.4 |
| 20260906173033 | 33 | 180 | 0.0 | 14.5 | 0.00 | 0.00 | 0.00 | 61 | 1015.8 |
| 20260906171555 | 33 | 210 | 1.6 | 17.7 | 0.00 | 0.00 | 0.00 | 61 | 1014.5 |
| 20260906171531 | 33 | 210 | 3.2 | 16.1 | 0.00 | 0.00 | 0.00 | 61 | 1016.0 |
| 20260906170053 | 33 | 94 | 0.0 | 19.3 | 0.00 | 0.00 | 0.00 | 60 | 1014.7 |
| 20260906170036 | 33 | 85 | 0.0 | 16.1 | 0.00 | 0.00 | 0.00 | 60 | 1016.1 |
| 20260906164552 | 32 | 262 | 3.2 | 14.5 | 0.00 | 0.00 | 0.00 | 62 | 1014.7 |
| 20260906164529 | 32 | 262 | 3.2 | 14.5 | 0.00 | 0.00 | 0.00 | 62 | 1016.1 |
| 20260906163108 | 32 | 0 | 3.2 | 11.3 | 0.00 | 0.00 | 0.00 | 63 | 1014.6 |
| 20260906163027 | 32 | 190 | 1.6 | 11.3 | 0.00 | 0.00 | 0.00 | 63 | 1016.1 |
| 20260906161601 | 32 | 213 | 1.6 | 9.7 | 0.00 | 0.00 | 0.00 | 64 | 1014.7 |
| 20260906161526 | 32 | 231 | 1.6 | 9.7 | 0.00 | 0.00 | 0.00 | 64 | 1016.1 |
| 20260906160053 | 31 | 0 | 1.6 | 8.0 | 0.00 | 0.00 | 0.00 | 65 | 1014.6 |
| 20260906160025 | 31 | 308 | 0.0 | 8.0 | 0.00 | 0.00 | 0.00 | 66 | 1016.2 |
| 20260906154549 | 31 | 0 | 1.6 | 9.7 | 0.00 | 0.00 | 0.00 | 65 | 1014.6 |
| 20260906154520 | 31 | 99 | 1.6 | 8.0 | 0.00 | 0.00 | 0.00 | 66 | 1016.0 |
| 20260906153058 | 31 | 0 | 3.2 | 11.3 | 0.00 | 0.00 | 0.00 | 66 | 1014.3 |
| 20260906153017 | 31 | 80 | 3.2 | 8.0 | 0.00 | 0.00 | 0.00 | 66 | 1016.0 |
| 20260906151556 | 30 | 0 | 1.6 | 8.0 | 0.00 | 0.00 | 0.00 | 67 | 1014.4 |
| 20260906151523 | 30 | 207 | 1.6 | 8.0 | 0.00 | 0.00 | 0.00 | 68 | 1015.9 |
| 20260906150012 | 30 | 184 | 3.2 | 8.0 | 0.00 | 0.00 | 0.00 | 69 | 1016.0 |
| 20260906144605 | 30 | 195 | 4.8 | 9.7 | 0.00 | 0.00 | 0.00 | 70 | 1014.3 |
| 20260906144510 | 30 | 169 | 4.8 | 8.0 | 0.00 | 0.00 | 0.00 | 71 | 1015.9 |
| 20260906143055 | 29 | 234 | 0.0 | 11.3 | 0.00 | 0.00 | 0.00 | 74 | 1014.2 |
| 20260906143005 | 29 | 223 | 0.0 | 11.3 | 0.00 | 0.00 | 0.00 | 74 | 1015.7 |
| 20260906141552 | 28 | 229 | 3.2 | 12.9 | 0.00 | 0.00 | 0.00 | 73 | 1014.2 |
| 20260906141503 | 28 | 247 | 1.6 | 12.9 | 0.00 | 0.00 | 0.00 | 74 | 1015.7 |
| 20260906140057 | 28 | 211 | 4.8 | 12.9 | 0.00 | 0.00 | 0.00 | 76 | 1014.1 |
| 20260906140002 | 28 | 157 | 4.8 | 12.9 | 0.00 | 0.00 | 0.00 | 76 | 1015.7 |
| 20260906134602 | 27 | 223 | 4.8 | 14.5 | 0.00 | 0.00 | 0.00 | 77 | 1013.9 |
| 20260906134501 | 27 | 209 | 4.8 | 14.5 | 0.00 | 0.00 | 0.00 | 78 | 1015.5 |
| 20260906133102 | 27 | 180 | 3.2 | 9.7 | 0.00 | 0.00 | 0.00 | 84 | 1013.9 |
| 20260906133001 | 27 | 192 | 3.2 | 8.0 | 0.00 | 0.00 | 0.00 | 85 | 1015.4 |
| 20260906131605 | 26 | 153 | 4.8 | 6.4 | 0.00 | 0.00 | 0.00 | 89 | 1015.1 |
| 20260906131552 | 26 | 123 | 1.6 | 6.4 | 0.00 | 0.00 | 0.00 | 88 | 1013.6 |
| 20260906130107 | 25 | 140 | 0.0 | 0.0 | 0.00 | 0.00 | 0.00 | 91 | 1015.0 |
| 20260906124556 | 25 | 142 | 0.0 | 1.6 | 0.00 | 0.00 | 0.00 | 91 | 1014.8 |
| 20260906124554 | 25 | 0 | 0.0 | 3.2 | 0.00 | 0.00 | 0.00 | 90 | 1013.0 |
| 20260906123056 | 25 | 150 | 0.0 | 3.2 | 0.00 | 0.00 | 0.00 | 90 | 1014.6 |
| 20260906123054 | 25 | 0 | 0.0 | 3.2 | 0.00 | 0.00 | 0.00 | 90 | 1012.9 |
| 20260906121557 | 25 | 141 | 0.0 | 3.2 | 0.00 | 0.00 | 0.00 | 90 | 1014.6 |
| 20260906120057 | 25 | 0 | 1.6 | 6.4 | 0.00 | 0.00 | 0.00 | 89 | 1012.5 |
| 20260906120052 | 25 | 138 | 0.0 | 6.4 | 0.00 | 0.00 | 0.00 | 90 | 1014.4 |
| 20260906114610 | 25 | 150 | 1.6 | 6.4 | 0.00 | 0.00 | 0.00 | 89 | 1012.5 |
| 20260906114603 | 25 | 150 | 1.6 | 8.0 | 0.00 | 0.00 | 0.00 | 89 | 1014.3 |
| 20260906113057 | 25 | 144 | 1.6 | 6.4 | 0.00 | 0.00 | 0.00 | 89 | 1012.5 |
| 20260906111550 | 25 | 186 | 0.0 | 3.2 | 0.00 | 0.00 | 0.00 | 88 | 1014.2 |
| 20260906110054 | 25 | 0 | 0.0 | 3.2 | 0.00 | 0.00 | 0.00 | 87 | 1012.4 |
| 20260906110049 | 25 | 186 | 0.0 | 1.6 | 0.00 | 0.00 | 0.00 | 88 | 1014.1 |
| 20260906104551 | 25 | 0 | 0.0 | 4.8 | 0.00 | 0.00 | 0.00 | 87 | 1012.3 |
| 20260906104545 | 25 | 182 | 0.0 | 3.2 | 0.00 | 0.00 | 0.00 | 87 | 1013.9 |
| 20260906103056 | 25 | 0 | 0.0 | 3.2 | 0.00 | 0.00 | 0.00 | 86 | 1012.2 |
| 20260906103044 | 25 | 144 | 0.0 | 3.2 | 0.00 | 0.00 | 0.00 | 87 | 1013.7 |
| 20260906101554 | 25 | 38 | 0.0 | 3.2 | 0.00 | 0.00 | 0.00 | 86 | 1011.6 |
| 20260906101543 | 25 | 38 | 0.0 | 3.2 | 0.00 | 0.00 | 0.00 | 87 | 1013.0 |
| 20260906100052 | 25 | 0 | 0.0 | 3.2 | 0.00 | 0.00 | 0.00 | 86 | 1011.5 |
| 20260906100042 | 25 | 64 | 0.0 | 3.2 | 0.00 | 0.00 | 0.00 | 86 | 1012.9 |
| 20260906094550 | 25 | 0 | 1.6 | 4.8 | 0.00 | 0.00 | 0.00 | 86 | 1011.7 |
| 20260906094542 | 25 | 59 | 1.6 | 4.8 | 0.00 | 0.00 | 0.00 | 86 | 1013.1 |
| 20260906093056 | 25 | 67 | 0.0 | 4.8 | 0.00 | 0.00 | 0.00 | 85 | 1011.5 |
| 20260906093040 | 25 | 67 | 0.0 | 4.8 | 0.00 | 0.00 | 0.00 | 86 | 1013.0 |
| 20260906091554 | 25 | 0 | 0.0 | 1.6 | 0.00 | 0.00 | 0.00 | 84 | 1011.5 |
| 20260906091539 | 25 | 161 | 0.0 | 1.6 | 0.00 | 0.00 | 0.00 | 85 | 1013.0 |
| 20260906090103 | 25 | 0 | 0.0 | 3.2 | 0.00 | 0.00 | 0.00 | 84 | 1011.6 |
| 20260906090036 | 25 | 161 | 0.0 | 3.2 | 0.00 | 0.00 | 0.00 | 84 | 1013.1 |
| 20260906084550 | 26 | 0 | 0.0 | 3.2 | 0.00 | 0.00 | 0.00 | 83 | 1011.9 |
| 20260906084534 | 26 | 161 | 0.0 | 3.2 | 0.00 | 0.00 | 0.00 | 83 | 1013.3 |
| 20260906083055 | 26 | 0 | 0.0 | 0.0 | 0.00 | 0.00 | 0.00 | 82 | 1011.8 |
| 20260906083031 | 26 | 183 | 0.0 | 1.6 | 0.00 | 0.00 | 0.00 | 82 | 1013.2 |
| 20260906081558 | 26 | 0 | 0.0 | 4.8 | 0.00 | 0.00 | 0.00 | 81 | 1011.9 |
| 20260906081540 | 26 | 183 | 0.0 | 4.8 | 0.00 | 0.00 | 0.00 | 81 | 1013.4 |
| 20260906080053 | 26 | 0 | 0.0 | 8.0 | 0.00 | 0.00 | 0.00 | 81 | 1012.3 |
| 20260906080030 | 26 | 179 | 0.0 | 8.0 | 0.00 | 0.00 | 0.00 | 81 | 1013.8 |
| 20260906074608 | 26 | 0 | 0.0 | 3.2 | 0.00 | 0.00 | 0.00 | 80 | 1012.5 |
| 20260906074525 | 26 | 175 | 0.0 | 3.2 | 0.00 | 0.00 | 0.00 | 81 | 1013.9 |
| 20260906073100 | 26 | 200 | 0.0 | 8.0 | 0.00 | 0.00 | 0.00 | 80 | 1012.6 |
| 20260906073023 | 26 | 200 | 0.0 | 6.4 | 0.00 | 0.00 | 0.00 | 80 | 1014.1 |
| 20260906071558 | 27 | 178 | 3.2 | 11.3 | 0.00 | 0.00 | 0.00 | 79 | 1012.8 |
| 20260906071520 | 27 | 178 | 1.6 | 11.3 | 0.00 | 0.00 | 0.00 | 80 | 1014.6 |
| 20260906070052 | 27 | 135 | 3.2 | 12.9 | 0.00 | 0.00 | 0.00 | 78 | 1013.0 |
| 20260906070019 | 27 | 135 | 3.2 | 11.3 | 0.00 | 0.00 | 0.00 | 79 | 1014.6 |
| 20260906064555 | 27 | 188 | 1.6 | 14.5 | 0.00 | 0.00 | 0.00 | 77 | 1013.1 |
| 20260906064516 | 27 | 149 | 1.6 | 14.5 | 0.00 | 0.00 | 0.00 | 77 | 1014.8 |
| 20260906063055 | 27 | 167 | 6.4 | 16.1 | 0.00 | 0.00 | 0.00 | 76 | 1013.2 |
| 20260906063015 | 27 | 211 | 6.4 | 14.5 | 0.00 | 0.00 | 0.00 | 76 | 1015.0 |
| 20260906061607 | 27 | 150 | 6.4 | 16.1 | 0.00 | 0.00 | 0.00 | 74 | 1013.2 |
| 20260906061514 | 27 | 167 | 6.4 | 12.9 | 0.00 | 0.00 | 0.00 | 75 | 1014.8 |
| 20260906060053 | 27 | 137 | 9.7 | 22.5 | 0.00 | 0.00 | 0.00 | 73 | 1013.2 |
| 20260906060021 | 27 | 150 | 9.7 | 22.5 | 0.00 | 0.00 | 0.00 | 73 | 1015.0 |
| 20260906054558 | 28 | 135 | 4.8 | 16.1 | 0.00 | 0.00 | 0.00 | 71 | 1013.2 |
| 20260906054509 | 28 | 126 | 4.8 | 16.1 | 0.00 | 0.00 | 0.00 | 72 | 1015.0 |
| 20260906053050 | 28 | 168 | 9.7 | 24.1 | 0.00 | 0.00 | 0.00 | 70 | 1013.3 |
| 20260906053018 | 28 | 167 | 9.7 | 24.1 | 0.00 | 0.00 | 0.00 | 71 | 1015.0 |
| 20260906051603 | 28 | 202 | 9.7 | 25.7 | 0.00 | 0.00 | 0.00 | 69 | 1013.1 |
| 20260906051513 | 28 | 176 | 8.0 | 25.7 | 0.00 | 0.00 | 0.00 | 69 | 1014.8 |
| 20260906050056 | 28 | 136 | 9.7 | 27.4 | 0.00 | 0.00 | 0.00 | 68 | 1013.2 |
| 20260906050020 | 28 | 209 | 9.7 | 25.7 | 0.00 | 0.00 | 0.00 | 69 | 1015.0 |
| 20260906044552 | 28 | 132 | 4.8 | 12.9 | 0.00 | 0.00 | 0.00 | 70 | 1013.4 |
| 20260906044506 | 28 | 155 | 4.8 | 12.9 | 0.00 | 0.00 | 0.00 | 70 | 1015.1 |
| 20260906043048 | 29 | 137 | 9.7 | 25.7 | 0.00 | 0.00 | 0.00 | 70 | 1013.3 |
| 20260906043006 | 29 | 171 | 12.9 | 22.5 | 0.00 | 0.00 | 0.00 | 70 | 1015.0 |
| 20260906041553 | 29 | 188 | 6.4 | 19.3 | 0.00 | 0.00 | 0.00 | 69 | 1013.3 |
| 20260906041505 | 29 | 190 | 6.4 | 19.3 | 0.00 | 0.00 | 0.00 | 69 | 1015.0 |
| 20260906040058 | 30 | 157 | 4.8 | 14.5 | 0.00 | 0.00 | 0.00 | 66 | 1013.1 |
| 20260906040004 | 30 | 164 | 4.8 | 14.5 | 0.00 | 0.00 | 0.00 | 67 | 1014.8 |
| 20260906034551 | 30 | 189 | 8.0 | 19.3 | 0.00 | 0.00 | 0.00 | 66 | 1013.0 |
| 20260906034503 | 30 | 192 | 8.0 | 19.3 | 0.00 | 0.00 | 0.00 | 66 | 1014.6 |
| 20260906033059 | 30 | 129 | 12.9 | 24.1 | 0.00 | 0.00 | 0.00 | 65 | 1012.7 |
| 20260906033009 | 30 | 139 | 14.5 | 24.1 | 0.00 | 0.00 | 0.00 | 65 | 1014.3 |
| 20260906031601 | 31 | 134 | 12.9 | 27.4 | 0.00 | 0.00 | 0.00 | 64 | 1012.2 |
| 20260906031502 | 31 | 112 | 12.9 | 27.4 | 0.00 | 0.00 | 0.00 | 64 | 1014.0 |
| 20260906030056 | 31 | 135 | 12.9 | 27.4 | 0.00 | 0.00 | 0.00 | 61 | 1012.1 |
| 20260906030005 | 31 | 159 | 12.9 | 22.5 | 0.00 | 0.00 | 0.00 | 62 | 1013.7 |
| 20260906024602 | 31 | 151 | 12.9 | 22.5 | 0.00 | 0.00 | 0.00 | 56 | 1011.7 |
| 20260906024501 | 31 | 115 | 12.9 | 22.5 | 0.00 | 0.00 | 0.00 | 56 | 1013.3 |
| 20260906023101 | 32 | 133 | 6.4 | 17.7 | 0.00 | 0.00 | 0.00 | 53 | 1012.9 |
| 20260906023053 | 32 | 167 | 8.0 | 17.7 | 0.00 | 0.00 | 0.00 | 52 | 1011.2 |
| 20260906021606 | 31 | 179 | 9.7 | 20.9 | 0.00 | 0.00 | 0.00 | 51 | 1012.6 |
| 20260906021553 | 31 | 142 | 8.0 | 22.5 | 0.00 | 0.00 | 0.00 | 50 | 1010.9 |
| 20260906020105 | 31 | 129 | 3.2 | 9.7 | 0.00 | 0.00 | 0.00 | 52 | 1010.4 |
| 20260906014559 | 31 | 98 | 4.8 | 9.7 | 0.00 | 0.00 | 0.00 | 52 | 1012.0 |
| 20260906014555 | 31 | 132 | 3.2 | 6.4 | 0.00 | 0.00 | 0.00 | 51 | 1010.2 |
| 20260906013058 | 32 | 140 | 3.2 | 6.4 | 0.00 | 0.00 | 0.00 | 51 | 1012.0 |
| 20260906013053 | 32 | 140 | 3.2 | 6.4 | 0.00 | 0.00 | 0.00 | 50 | 1010.2 |
| 20260906011558 | 32 | 145 | 3.2 | 6.4 | 0.00 | 0.00 | 0.00 | 51 | 1011.7 |
| 20260906011553 | 32 | 136 | 3.2 | 6.4 | 0.00 | 0.00 | 0.00 | 50 | 1010.0 |
| 20260906010056 | 32 | 121 | 1.6 | 6.4 | 0.00 | 0.00 | 0.00 | 51 | 1011.7 |
| 20260906010053 | 32 | 121 | 1.6 | 6.4 | 0.00 | 0.00 | 0.00 | 50 | 1010.1 |
| 20260906004557 | 33 | 155 | 1.6 | 4.8 | 0.00 | 0.00 | 0.00 | 50 | 1011.7 |
| 20260906003057 | 33 | 118 | 3.2 | 12.9 | 0.00 | 0.00 | 0.00 | 48 | 1009.9 |
| 20260906001557 | 34 | 109 | 3.2 | 14.5 | 0.00 | 0.00 | 0.00 | 48 | 1009.8 |
| 20260906001555 | 34 | 105 | 4.8 | 14.5 | 0.00 | 0.00 | 0.00 | 49 | 1011.5 |
| 20260906000054 | 34 | 142 | 6.4 | 16.1 | 0.00 | 0.00 | 0.00 | 49 | 1011.6 |
| 20260906000050 | 34 | 140 | 8.0 | 16.1 | 0.00 | 0.00 | 0.00 | 49 | 1009.8 |
| 20260905234558 | 35 | 184 | 6.4 | 16.1 | 0.00 | 0.00 | 0.00 | 48 | 1009.8 |
| 20260905234553 | 35 | 195 | 8.0 | 14.5 | 0.00 | 0.00 | 0.00 | 49 | 1011.7 |
| 20260905233054 | 35 | 0 | 3.2 | 11.3 | 0.00 | 0.00 | 0.00 | 47 | 1009.8 |
| 20260905231558 | 34 | 101 | 1.6 | 12.9 | 0.00 | 0.00 | 0.00 | 48 | 1009.8 |
| 20260905231552 | 35 | 99 | 0.0 | 8.0 | 0.00 | 0.00 | 0.00 | 48 | 1011.6 |
| 20260905230054 | 35 | 103 | 0.0 | 14.5 | 0.00 | 0.00 | 0.00 | 47 | 1009.9 |
| 20260905224605 | 34 | 67 | 4.8 | 14.5 | 0.00 | 0.00 | 0.00 | 47 | 1009.9 |
| 20260905224603 | 34 | 55 | 4.8 | 14.5 | 0.00 | 0.00 | 0.00 | 48 | 1011.7 |
| 20260905223054 | 34 | 148 | 3.2 | 14.5 | 0.00 | 0.00 | 0.00 | 47 | 1010.0 |
| 20260905223049 | 34 | 148 | 3.2 | 12.9 | 0.00 | 0.00 | 0.00 | 48 | 1011.9 |
| 20260905221602 | 35 | 121 | 6.4 | 19.3 | 0.00 | 0.00 | 0.00 | 51 | 1010.1 |
| 20260905221557 | 35 | 119 | 4.8 | 14.5 | 0.00 | 0.00 | 0.00 | 51 | 1012.0 |
| 20260905214556 | 36 | 350 | 3.2 | 14.5 | 0.00 | 0.00 | 0.00 | 50 | 1010.0 |
| 20260905214545 | 36 | 355 | 4.8 | 8.0 | 0.00 | 0.00 | 0.00 | 50 | 1011.8 |
| 20260905213053 | 36 | 110 | 8.0 | 16.1 | 0.00 | 0.00 | 0.00 | 49 | 1010.1 |
| 20260905213039 | 36 | 135 | 8.0 | 16.1 | 0.00 | 0.00 | 0.00 | 50 | 1012.1 |
| 20260905211629 | 35 | 80 | 6.4 | 14.5 | 0.00 | 0.00 | 0.00 | 50 | 1010.4 |
| 20260905211536 | 35 | 60 | 6.4 | 14.5 | 0.00 | 0.00 | 0.00 | 50 | 1012.3 |
| 20260905210056 | 35 | 101 | 11.3 | 19.3 | 0.00 | 0.00 | 0.00 | 50 | 1010.7 |
| 20260905210033 | 35 | 109 | 12.9 | 19.3 | 0.00 | 0.00 | 0.00 | 51 | 1012.4 |
| 20260905204556 | 35 | 86 | 9.7 | 19.3 | 0.00 | 0.00 | 0.00 | 54 | 1010.8 |
| 20260905204532 | 35 | 86 | 9.7 | 19.3 | 0.00 | 0.00 | 0.00 | 55 | 1012.5 |
| 20260905203114 | 35 | 185 | 4.8 | 17.7 | 0.00 | 0.00 | 0.00 | 53 | 1011.1 |
| 20260905203028 | 35 | 188 | 8.0 | 17.7 | 0.00 | 0.00 | 0.00 | 53 | 1012.8 |
| 20260905201601 | 35 | 128 | 9.7 | 20.9 | 0.00 | 0.00 | 0.00 | 53 | 1011.4 |
| 20260905201525 | 35 | 128 | 9.7 | 20.9 | 0.00 | 0.00 | 0.00 | 53 | 1013.1 |
| 20260905200100 | 35 | 165 | 4.8 | 16.1 | 0.00 | 0.00 | 0.00 | 53 | 1011.6 |
| 20260905200025 | 35 | 166 | 6.4 | 16.1 | 0.00 | 0.00 | 0.00 | 53 | 1013.4 |
| 20260905194548 | 34 | 0 | 0.0 | 16.1 | 0.00 | 0.00 | 0.00 | 57 | 1012.1 |
| 20260905194518 | 34 | 40 | 0.0 | 16.1 | 0.00 | 0.00 | 0.00 | 57 | 1014.0 |
| 20260905193055 | 33 | 175 | 4.8 | 12.9 | 0.00 | 0.00 | 0.00 | 54 | 1012.3 |
| 20260905193017 | 33 | 162 | 6.4 | 12.9 | 0.00 | 0.00 | 0.00 | 55 | 1014.1 |
| 20260905191551 | 34 | 138 | 1.6 | 17.7 | 0.00 | 0.00 | 0.00 | 55 | 1012.6 |
| 20260905191515 | 34 | 86 | 1.6 | 17.7 | 0.00 | 0.00 | 0.00 | 55 | 1014.5 |